This demonstration page uses our WeatherBlox Daily Observations layout. Learn more.

Left ArrowRight Arrow

34.16533, -84.80231

Hourly Observations for March 14, 2017

Temp ( °F °C ) Dew Point ( °F °C ) Humidity (%) Winds ( mph kmh ) Pressure ( in mb ) Visibility ( mi km ) Precip ( " mm )
12:04 am 00:04 Cloudy with Light Rain 40 4.4 39 3.9 97 97 undefined N/A 30.00 1016 5 8 0.00 0.03
12:38 am 00:38 Cloudy with Light Rain 40 4.4 39 3.9 97 97 undefined N/A 30.00 1016 6 10 0.01 0.25
12:53 am 00:53 Cloudy with Light Rain 40 4.4 39 3.9 97 97 undefined N/A 29.95 1014 6 10 0.01 0.25
1:10 am 01:10 Cloudy 40 4.4 39 3.9 97 97 undefined N/A 29.97 1015 9 14 0.01 0.25
1:46 am 01:46 Cloudy 40 4.4 38 3.3 93 93 undefined N/A 29.97 1015 10 16 0.01 0.25
1:53 am 01:53 Cloudy 40 4.4 38 3.3 93 93 undefined N/A 29.92 1013 10 16 0.01 0.25
2:19 am 02:19 Cloudy 40 4.4 38 3.3 93 93 undefined N/A 29.97 1015 10 16 0.00 0.00
2:43 am 02:43 Cloudy 39 3.9 38 3.3 96 96 undefined N/A 29.97 1015 10 16 0.00 0.00
2:53 am 02:53 Cloudy 39 3.9 37 2.8 93 93 undefined N/A 29.92 1013 10 16 0.00 0.00
3:04 am 03:04 Cloudy 39 3.9 38 3.3 96 96 undefined N/A 29.94 1014 10 16 0.00 0.00
3:14 am 03:14 Cloudy 39 3.9 38 3.3 96 96 undefined N/A 29.94 1014 10 16 0.00 0.00
3:24 am 03:24 Cloudy 39 3.9 38 3.3 96 96 undefined N/A 29.94 1014 9 14 0.00 0.00
3:49 am 03:49 Cloudy 39 4 37 3 93 93 undefined N/A 29.94 1014 8 13 0.00 0.00
3:53 am 03:53 Cloudy 39 3.9 38 3.3 96 96 undefined N/A 29.91 1013 9 14 0.00 0.00
4:05 am 04:05 Cloudy 39 3.9 38 3.3 96 96 undefined N/A 29.94 1014 10 16 0.00 0.00
4:19 am 04:19 Cloudy 39 3.9 38 3.3 96 96 undefined N/A 29.94 1014 10 16 0.00 0.00
4:43 am 04:43 Cloudy 39 3.9 38 3.3 96 96 undefined N/A 29.94 1014 10 16 0.00 0.00
4:53 am 04:53 Cloudy 39 3.9 38 3.3 96 96 undefined N/A 29.89 1012 10 16 0.00 0.00
5:43 am 05:43 Cloudy 40 4.4 39 3.9 97 97 undefined N/A 29.94 1014 10 16 0.00 0.00
5:53 am 05:53 Cloudy 40 4.4 39 3.9 97 97 undefined N/A 29.90 1013 10 16 0.00 0.00
6:07 am 06:07 Cloudy 40 4.4 39 3.9 97 97 undefined N/A 29.94 1014 10 16 0.00 0.00
6:45 am 06:45 Cloudy 40 4.4 39 3.9 97 97 undefined N/A 29.94 1014 10 16 0.00 0.00
6:53 am 06:53 Cloudy 41 5 39 3.9 93 93 undefined N/A 29.91 1013 10 16 0.00 0.00
7:35 am 07:35 Cloudy 41 5 38 3.3 89 89 undefined N/A 29.97 1015 10 16 0.00 0.00
7:53 am 07:53 Cloudy 41 5 38 3.3 89 89 undefined N/A 29.93 1013 10 16 0.00 0.00
8:01 am 08:01 Cloudy 41 5 38 3.3 89 89 undefined N/A 29.97 1015 10 16 0.00 0.00
8:39 am 08:39 Cloudy 41 5 38 3.3 89 89 undefined N/A 30.00 1016 10 16 0.00 0.00
8:53 am 08:53 Cloudy 41 5 37 2.8 86 86 undefined N/A 29.95 1014 10 16 0.00 0.00
9:53 am 09:53 Cloudy 41 5 36 2.2 82 82 undefined N/A 29.97 1015 10 16 0.00 0.00
10:53 am 10:53 Cloudy 41 5 35 1.7 79 79 undefined N/A 30.00 1016 10 16 0.00 0.00
11:53 am 11:53 Cloudy 42 5.6 33 0.6 71 71 undefined N/A 30.03 1017 10 16 0.00 0.00
12:53 pm 12:53 Cloudy 43 6.1 32 0 65 65 undefined N/A 30.02 1017 10 16 0.00 0.00
1:31 pm 13:31 Cloudy 44 6.7 32 0 63 63 undefined N/A 30.06 1018 10 16 0.00 0.00
1:53 pm 13:53 Cloudy 43 6.1 33 0.6 68 68 undefined N/A 30.03 1017 10 16 0.00 0.00
2:15 pm 14:15 Cloudy 42 5.6 33 0.6 71 71 undefined N/A 30.06 1018 10 16 0.00 0.00
2:41 pm 14:41 Cloudy 42 5.6 32 0 68 68 undefined N/A 30.06 1018 10 16 0.00 0.00
2:53 pm 14:53 Cloudy 42 5.6 32 0 68 68 undefined N/A 30.04 1017 10 16 0.00 0.00
3:20 pm 15:20 Cloudy 40 4.4 31 -0.6 70 70 undefined N/A 30.06 1018 10 16 0.00 0.00
3:53 pm 15:53 Cloudy 40 4.4 29 -1.7 65 65 undefined N/A 30.06 1018 10 16 0.00 0.00
4:13 pm 16:13 Cloudy 39 3.9 29 -1.7 67 67 undefined N/A 30.06 1018 10 16 0.00 0.00
4:21 pm 16:21 Cloudy 39 3.9 28 -2.2 65 65 undefined N/A 30.09 1019 10 16 0.00 0.00
4:53 pm 16:53 Cloudy 38 3.3 29 -1.7 70 70 undefined N/A 30.07 1018 10 16 0.00 0.00
5:53 pm 17:53 Cloudy 37 2.8 27 -2.8 67 67 undefined N/A 30.07 1018 10 16 0.00 0.00
6:53 pm 18:53 Cloudy 36 2.2 26 -3.3 67 67 undefined N/A 30.09 1019 10 16 0.00 0.00
7:53 pm 19:53 Cloudy 35 1.7 25 -3.9 67 67 undefined N/A 30.12 1020 10 16 0.00 0.00
8:00 pm 20:00 Cloudy 35 1.7 25 -3.9 67 67 undefined N/A 30.15 1021 10 16 0.00 0.00
8:53 pm 20:53 Cloudy 34 1.1 24 -4.4 67 67 undefined N/A 30.14 1021 10 16 0.00 0.00
9:53 pm 21:53 Cloudy 34 1.1 22 -5.6 61 61 undefined N/A 30.16 1021 10 16 0.00 0.00
10:53 pm 22:53 Clear 31 -0.6 22 -5.6 69 69 undefined N/A 30.17 1022 10 16 0.00 0.00
11:53 pm 23:53 Clear 31 -0.6 21 -6.1 67 67 undefined N/A 30.18 1022 10 16 0.00 0.00

Powered by AerisWeather